{"data":{"norad_id":68481,"epoch":"2026-09-20T02:51:31.790880Z","epoch_age_seconds":101709,"freshness":"FRESH","line1":"1 68481U 26067BT  26263.11911795  .00001018  00000+0  10528-3 0  9999","line2":"2 68481  97.7784 220.2044 0003333  28.6133 331.5269 14.92260566 25883","mean_motion":14.92260566,"eccentricity":0.0003333,"inclination_deg":97.7784,"raan_deg":220.2044,"arg_perigee_deg":28.6133,"mean_anomaly_deg":331.5269,"bstar":0.00010528,"rev_number":2588,"period_min":96.497892714535,"perigee_km":588.56592627128,"apogee_km":593.2114788046,"semimajor_km":6969.0257025379,"source":"CELESTRAK","updated_at":"2026-09-20T09:00:24.247753Z"}}